Location: Doverdale
(52.2833°N, 2.2000°W)
Time: 13:16:29
(UTC+00:00)

Cosmos 1346 Rocket - Pass Details

Date: 29 October 2020
Orbit: 535 x 543 km, 81.2° (Epoch: 28 November)

Event Time Altitude Azimuth Distance (km) Brightness Sun altitude
Rises 17:27:02 0° 354° (N) 2,719 6.3 -7.0°
Reaches altitude 10° 17:29:28 10° 7° (N) 1,822 5.3 -7.4°
Maximum altitude 17:32:55 27° 66° (ENE) 1,070 3.7 -7.9°
Drops below altitude 10° 17:36:21 10° 126° (SE) 1,811 5.1 -8.4°
Sets 17:38:46 0° 139° (SE) 2,699 6.0 -8.8°
